Time,TemperatureF,DewpointF,PressureIn,WindDirection,WindDirectionDegrees,WindSpeedMPH,WindSpeedGustMPH,Humidity,HourlyPrecipIn,Conditions,Clouds,dailyrainin,SoftwareType,DateUTC
2013-02-21 00:02:00,41.5,33.8,30.06,NNE,21,0.0,0.0,74,0.00,,SCT250,0.00,VWS V13.01,2013-02-21 06:02:00,
2013-02-21 00:07:00,41.8,33.8,30.05,NNE,26,0.0,2.0,73,0.00,,SCT250,0.00,VWS V13.01,2013-02-21 06:07:00,
2013-02-21 00:12:00,42.1,34.1,30.05,NE,42,0.0,2.0,73,0.00,,SCT250,0.00,VWS V13.01,2013-02-21 06:12:00,
2013-02-21 00:17:00,42.4,34.0,30.05,NE,42,0.0,0.0,72,0.00,,SCT250,0.00,VWS V13.01,2013-02-21 06:17:00,
2013-02-21 00:22:00,42.7,34.0,30.06,ENE,61,0.0,3.0,71,0.00,,SCT250,0.00,VWS V13.01,2013-02-21 06:22:00,
2013-02-21 00:27:00,43.1,34.3,30.05,ENE,61,0.0,3.0,71,0.00,,SCT250,0.00,VWS V13.01,2013-02-21 06:27:00,
2013-02-21 00:32:00,43.3,34.2,30.05,ENE,61,0.0,3.0,70,0.00,,SCT250,0.00,VWS V13.01,2013-02-21 06:32:00,
2013-02-21 00:38:00,43.6,34.5,30.04,NE,40,2.0,4.0,70,0.00,,SCT250,0.00,VWS V13.01,2013-02-21 06:38:00,
2013-02-21 00:43:00,43.9,34.8,30.04,ENE,71,0.0,4.0,70,0.00,,SCT250,0.00,VWS V13.01,2013-02-21 06:43:00,
2013-02-21 00:48:00,44.2,34.3,30.04,NE,55,0.0,3.0,68,0.00,,SCT250,0.00,VWS V13.01,2013-02-21 06:48:00,
2013-02-21 00:53:00,44.5,34.6,30.04,East,80,0.0,4.0,68,0.00,,SCT250,0.00,VWS V13.01,2013-02-21 06:53:00,
2013-02-21 00:58:00,44.8,34.5,30.04,NE,54,0.0,4.0,67,0.00,,SCT250,0.00,VWS V13.01,2013-02-21 06:58:00,
2013-02-21 01:03:00,45.0,34.3,30.04,NE,53,1.0,1.0,66,0.00,,CLR,0.00,VWS V13.01,2013-02-21 07:03:00,
2013-02-21 01:08:00,45.0,34.7,30.04,ENE,72,2.0,4.0,67,0.00,,CLR,0.00,VWS V13.01,2013-02-21 07:08:00,
2013-02-21 01:13:00,45.1,34.4,30.04,ENE,72,0.0,4.0,66,0.00,,CLR,0.00,VWS V13.01,2013-02-21 07:13:00,
2013-02-21 01:18:00,45.1,34.4,30.04,ENE,63,0.0,4.0,66,0.00,,CLR,0.00,VWS V13.01,2013-02-21 07:18:00,
2013-02-21 01:23:00,45.1,34.0,30.04,ENE,62,0.0,4.0,65,0.00,,CLR,0.00,VWS V13.01,2013-02-21 07:23:00,
2013-02-21 01:29:00,45.2,34.2,30.04,ENE,63,0.0,4.0,65,0.00,,CLR,0.00,VWS V13.01,2013-02-21 07:29:00,
2013-02-21 01:34:00,45.2,33.8,30.04,ENE,63,0.0,0.0,64,0.00,,CLR,0.00,VWS V13.01,2013-02-21 07:34:00,
2013-02-21 01:39:00,45.1,33.7,30.04,ENE,63,0.0,0.0,64,0.00,,CLR,0.00,VWS V13.01,2013-02-21 07:39:00,
2013-02-21 01:44:00,45.0,33.6,30.04,ENE,63,0.0,0.0,64,0.00,,CLR,0.00,VWS V13.01,2013-02-21 07:44:00,
2013-02-21 01:49:00,45.0,33.6,30.03,ENE,63,0.0,0.0,64,0.00,,CLR,0.00,VWS V13.01,2013-02-21 07:49:00,
2013-02-21 01:54:00,44.9,33.5,30.04,ENE,63,0.0,0.0,64,0.00,,CLR,0.00,VWS V13.01,2013-02-21 07:54:00,
2013-02-21 01:59:00,44.7,33.7,30.04,ENE,63,0.0,0.0,65,0.00,,CLR,0.00,VWS V13.01,2013-02-21 07:59:00,
2013-02-21 02:04:00,44.5,33.5,30.03,ENE,63,0.0,0.0,65,0.00,,CLR,0.00,VWS V13.01,2013-02-21 08:04:00,
2013-02-21 02:09:00,44.4,33.4,30.03,ENE,63,0.0,0.0,65,0.00,,CLR,0.00,VWS V13.01,2013-02-21 08:09:00,
2013-02-21 02:14:00,44.2,33.6,30.03,ENE,63,0.0,0.0,66,0.00,,CLR,0.00,VWS V13.01,2013-02-21 08:14:00,
2013-02-21 02:20:00,44.0,33.8,30.02,ENE,63,0.0,0.0,67,0.00,,CLR,0.00,VWS V13.01,2013-02-21 08:20:00,
2013-02-21 02:25:00,43.8,33.9,30.02,ENE,63,0.0,0.0,68,0.00,,CLR,0.00,VWS V13.01,2013-02-21 08:25:00,
2013-02-21 02:30:00,43.7,33.8,30.02,ENE,63,0.0,2.0,68,0.00,,CLR,0.00,VWS V13.01,2013-02-21 08:30:00,
2013-02-21 02:35:00,43.6,33.4,30.01,NE,56,0.0,3.0,67,0.00,,CLR,0.00,VWS V13.01,2013-02-21 08:35:00,
2013-02-21 02:40:00,43.7,33.5,30.01,NE,56,0.0,3.0,67,0.00,,CLR,0.00,VWS V13.01,2013-02-21 08:40:00,
2013-02-21 02:45:00,43.8,33.6,30.01,NE,47,0.0,3.0,67,0.00,,CLR,0.00,VWS V13.01,2013-02-21 08:45:00,
2013-02-21 02:50:00,43.8,33.6,30.00,NE,47,0.0,3.0,67,0.00,,CLR,0.00,VWS V13.01,2013-02-21 08:50:00,
2013-02-21 02:55:00,43.9,33.3,30.00,NE,40,0.0,3.0,66,0.00,,CLR,0.00,VWS V13.01,2013-02-21 08:55:00,
2013-02-21 03:00:00,43.9,33.3,30.00,NE,53,0.0,3.0,66,0.00,,CLR,0.00,VWS V13.01,2013-02-21 09:00:00,
2013-02-21 03:05:00,44.0,33.4,30.01,NE,53,0.0,1.0,66,0.00,,CLR,0.00,VWS V13.01,2013-02-21 09:05:00,
2013-02-21 03:11:00,43.9,33.3,30.00,NE,54,0.0,1.0,66,0.00,,CLR,0.00,VWS V13.01,2013-02-21 09:11:00,
2013-02-21 03:16:00,43.9,33.3,30.00,NE,53,0.0,2.0,66,0.00,,CLR,0.00,VWS V13.01,2013-02-21 09:16:00,
2013-02-21 03:21:00,43.9,33.7,30.00,NE,54,0.0,3.0,67,0.00,,CLR,0.00,VWS V13.01,2013-02-21 09:21:00,
2013-02-21 03:26:00,43.9,33.7,30.00,NE,36,0.0,5.0,67,0.00,,CLR,0.00,VWS V13.01,2013-02-21 09:26:00,
2013-02-21 03:31:00,43.8,33.6,30.00,NE,51,0.0,5.0,67,0.00,,CLR,0.00,VWS V13.01,2013-02-21 09:31:00,
2013-02-21 03:36:00,43.8,33.6,30.00,NE,55,3.0,5.0,67,0.00,,CLR,0.00,VWS V13.01,2013-02-21 09:36:00,
2013-02-21 03:41:00,43.8,33.6,30.00,NE,44,0.0,6.0,67,0.00,,CLR,0.00,VWS V13.01,2013-02-21 09:41:00,
2013-02-21 03:46:00,44.0,33.8,30.00,NE,46,2.0,6.0,67,0.00,,CLR,0.00,VWS V13.01,2013-02-21 09:46:00,
2013-02-21 03:51:00,44.0,33.4,29.99,NE,44,4.0,6.0,66,0.00,,CLR,0.00,VWS V13.01,2013-02-21 09:51:00,
2013-02-21 03:56:00,44.0,33.0,29.99,NE,53,0.0,6.0,65,0.00,,CLR,0.00,VWS V13.01,2013-02-21 09:56:00,
2013-02-21 04:01:00,44.1,33.1,30.00,ENE,67,0.0,0.0,65,0.00,,CLR,0.00,VWS V13.01,2013-02-21 10:01:00,
2013-02-21 04:06:00,44.1,33.1,30.00,ENE,59,0.0,4.0,65,0.00,,CLR,0.00,VWS V13.01,2013-02-21 10:06:00,
2013-02-21 04:12:00,44.1,32.7,29.99,NE,44,0.0,5.0,64,0.00,,CLR,0.00,VWS V13.01,2013-02-21 10:12:00,
2013-02-21 04:17:00,44.1,32.7,29.99,ENE,60,1.0,10.0,64,0.00,,CLR,0.00,VWS V13.01,2013-02-21 10:17:00,
2013-02-21 04:22:00,44.2,32.4,30.00,NE,53,0.0,10.0,63,0.00,,CLR,0.00,VWS V13.01,2013-02-21 10:22:00,
2013-02-21 04:27:00,44.2,32.4,30.00,NE,40,0.0,10.0,63,0.00,,CLR,0.00,VWS V13.01,2013-02-21 10:27:00,
2013-02-21 04:32:00,44.4,32.2,30.00,ENE,69,1.0,3.0,62,0.00,,CLR,0.00,VWS V13.01,2013-02-21 10:32:00,
2013-02-21 04:37:00,44.5,32.3,30.00,ENE,70,0.0,3.0,62,0.00,,CLR,0.00,VWS V13.01,2013-02-21 10:37:00,
2013-02-21 04:42:00,44.6,32.4,30.00,ENE,64,0.0,5.0,62,0.00,,CLR,0.00,VWS V13.01,2013-02-21 10:42:00,
2013-02-21 04:47:00,44.8,33.0,30.00,ENE,63,0.0,0.0,63,0.00,,CLR,0.00,VWS V13.01,2013-02-21 10:47:00,
2013-02-21 04:52:00,44.9,33.1,30.01,ENE,57,0.0,4.0,63,0.00,,CLR,0.00,VWS V13.01,2013-02-21 10:52:00,
2013-02-21 04:57:00,45.0,33.2,30.01,NE,55,0.0,4.0,63,0.00,,CLR,0.00,VWS V13.01,2013-02-21 10:57:00,
2013-02-21 05:02:00,45.0,33.2,30.01,NE,52,0.0,4.0,63,0.00,,CLR,0.00,VWS V13.01,2013-02-21 11:02:00,
2013-02-21 05:08:00,45.1,33.3,30.01,NE,54,0.0,4.0,63,0.00,,CLR,0.00,VWS V13.01,2013-02-21 11:08:00,
2013-02-21 05:13:00,45.2,33.4,30.01,ENE,65,0.0,5.0,63,0.00,,CLR,0.00,VWS V13.01,2013-02-21 11:13:00,
2013-02-21 05:18:00,45.4,33.2,30.01,East,81,0.0,0.0,62,0.00,,CLR,0.00,VWS V13.01,2013-02-21 11:18:00,
2013-02-21 05:23:00,45.6,33.3,30.01,NE,46,0.0,5.0,62,0.00,,CLR,0.00,VWS V13.01,2013-02-21 11:23:00,
2013-02-21 05:28:00,45.8,33.5,30.01,NE,55,0.0,5.0,62,0.00,,CLR,0.00,VWS V13.01,2013-02-21 11:28:00,
2013-02-21 05:33:00,45.9,33.6,30.01,NE,38,0.0,1.0,62,0.00,,BKN038,0.00,VWS V13.01,2013-02-21 11:33:00,
2013-02-21 05:38:00,46.0,33.7,30.02,East,81,0.0,5.0,62,0.00,,BKN038,0.00,VWS V13.01,2013-02-21 11:38:00,
2013-02-21 05:43:00,46.1,33.8,30.02,ENE,60,4.0,5.0,62,0.00,,BKN038,0.00,VWS V13.01,2013-02-21 11:43:00,
2013-02-21 05:48:00,46.2,33.9,30.02,NNE,25,0.0,2.0,62,0.00,,BKN038,0.00,VWS V13.01,2013-02-21 11:48:00,
2013-02-21 05:53:00,46.3,34.0,30.02,NE,48,0.0,4.0,62,0.00,,BKN038,0.00,VWS V13.01,2013-02-21 11:53:00,
2013-02-21 05:59:00,46.4,34.5,30.02,NE,48,0.0,4.0,63,0.00,,BKN038,0.00,VWS V13.01,2013-02-21 11:59:00,
2013-02-21 06:04:00,46.5,34.2,30.01,NE,39,0.0,5.0,62,0.00,,OVC034,0.00,VWS V13.01,2013-02-21 12:04:00,
2013-02-21 06:09:00,46.5,34.2,30.01,NE,55,0.0,6.0,62,0.00,,OVC034,0.00,VWS V13.01,2013-02-21 12:09:00,
2013-02-21 06:14:00,46.7,34.4,30.01,ENE,65,6.0,6.0,62,0.00,,OVC034,0.00,VWS V13.01,2013-02-21 12:14:00,
2013-02-21 06:19:00,46.7,34.8,30.02,NE,56,2.0,2.0,63,0.00,,OVC034,0.00,VWS V13.01,2013-02-21 12:19:00,
2013-02-21 06:24:00,46.8,34.9,30.02,ENE,70,0.0,3.0,63,0.00,,OVC034,0.00,VWS V13.01,2013-02-21 12:24:00,
2013-02-21 06:29:00,46.8,34.9,30.01,ENE,69,0.0,3.0,63,0.00,,OVC034,0.00,VWS V13.01,2013-02-21 12:29:00,
2013-02-21 06:34:00,46.9,35.0,30.02,ENE,62,0.0,3.0,63,0.00,,OVC028,0.00,VWS V13.01,2013-02-21 12:34:00,
2013-02-21 06:39:00,46.9,35.4,30.02,ENE,57,0.0,3.0,64,0.00,,OVC028,0.00,VWS V13.01,2013-02-21 12:39:00,
2013-02-21 06:44:00,47.0,35.1,30.02,ENE,58,0.0,4.0,63,0.00,,OVC028,0.00,VWS V13.01,2013-02-21 12:44:00,
2013-02-21 06:49:00,47.1,35.2,30.02,ENE,63,0.0,4.0,63,0.00,,OVC028,0.00,VWS V13.01,2013-02-21 12:49:00,
2013-02-21 06:55:00,47.2,35.3,30.01,ENE,63,2.0,5.0,63,0.00,,OVC028,0.00,VWS V13.01,2013-02-21 12:55:00,
2013-02-21 07:00:00,47.2,35.3,30.02,ENE,59,0.0,5.0,63,0.00,,OVC028,0.00,VWS V13.01,2013-02-21 13:00:00,
2013-02-21 07:05:00,47.2,35.3,30.02,East,79,0.0,4.0,63,0.00,,OVC026,0.00,VWS V13.01,2013-02-21 13:05:00,
2013-02-21 07:10:00,47.3,35.4,30.03,ENE,65,0.0,4.0,63,0.00,,OVC026,0.00,VWS V13.01,2013-02-21 13:10:00,
2013-02-21 07:15:00,47.5,35.5,30.03,ENE,62,2.0,4.0,63,0.00,,OVC026,0.00,VWS V13.01,2013-02-21 13:15:00,
2013-02-21 07:20:00,47.7,35.7,30.03,ENE,63,0.0,2.0,63,0.00,,OVC026,0.00,VWS V13.01,2013-02-21 13:20:00,
2013-02-21 07:25:00,47.9,35.5,30.03,ENE,65,0.0,4.0,62,0.00,,OVC026,0.00,VWS V13.01,2013-02-21 13:25:00,
2013-02-21 07:30:00,48.2,35.8,30.03,NE,40,0.0,4.0,62,0.00,,OVC026,0.00,VWS V13.01,2013-02-21 13:30:00,
2013-02-21 07:35:00,48.4,35.6,30.03,ENE,67,0.0,5.0,61,0.00,,OVC026,0.00,VWS V13.01,2013-02-21 13:35:00,
2013-02-21 07:40:00,48.6,35.4,30.04,NE,46,1.0,7.0,60,0.00,,OVC026,0.00,VWS V13.01,2013-02-21 13:40:00,
2013-02-21 07:45:00,48.8,35.5,30.04,NE,42,0.0,7.0,60,0.00,,OVC026,0.00,VWS V13.01,2013-02-21 13:45:00,
2013-02-21 07:50:00,49.0,35.7,30.04,NE,44,0.0,4.0,60,0.00,,OVC026,0.00,VWS V13.01,2013-02-21 13:50:00,
2013-02-21 07:56:00,49.2,35.5,30.04,ENE,65,4.0,4.0,59,0.00,,OVC026,0.00,VWS V13.01,2013-02-21 13:56:00,
2013-02-21 08:01:00,49.4,35.7,30.04,East,81,0.0,4.0,59,0.00,,OVC200,0.00,VWS V13.01,2013-02-21 14:01:00,
2013-02-21 08:06:00,49.5,35.8,30.04,East,89,0.0,4.0,59,0.00,,OVC200,0.00,VWS V13.01,2013-02-21 14:06:00,
2013-02-21 08:11:00,49.7,36.0,30.04,East,98,0.0,5.0,59,0.00,,OVC200,0.00,VWS V13.01,2013-02-21 14:11:00,
2013-02-21 08:16:00,50.0,36.7,30.04,East,80,0.0,5.0,60,0.00,,OVC200,0.00,VWS V13.01,2013-02-21 14:16:00,
2013-02-21 08:21:00,50.2,36.9,30.04,East,84,0.0,4.0,60,0.00,,OVC200,0.00,VWS V13.01,2013-02-21 14:21:00,
2013-02-21 08:26:00,50.5,37.2,30.04,East,84,2.0,4.0,60,0.00,,OVC200,0.00,VWS V13.01,2013-02-21 14:26:00,
2013-02-21 08:31:00,50.9,37.5,30.05,East,94,0.0,4.0,60,0.00,,OVC200,0.00,VWS V13.01,2013-02-21 14:31:00,
2013-02-21 08:36:00,51.4,38.0,30.04,ENE,63,0.0,3.0,60,0.00,,OVC200,0.00,VWS V13.01,2013-02-21 14:36:00,
2013-02-21 08:41:00,51.7,37.8,30.05,ENE,61,0.0,7.0,59,0.00,,OVC200,0.00,VWS V13.01,2013-02-21 14:41:00,
2013-02-21 08:46:00,51.9,38.5,30.05,ENE,63,0.0,7.0,60,0.00,,OVC200,0.00,VWS V13.01,2013-02-21 14:46:00,
2013-02-21 08:51:00,52.1,38.7,30.05,East,84,3.0,4.0,60,0.00,,OVC200,0.00,VWS V13.01,2013-02-21 14:51:00,
2013-02-21 08:56:00,52.2,38.8,30.05,ESE,102,1.0,5.0,60,0.00,,OVC200,0.00,VWS V13.01,2013-02-21 14:56:00,
2013-02-21 09:01:00,52.4,39.4,30.04,ENE,59,0.0,0.0,61,0.00,,OVC090,0.00,VWS V13.01,2013-02-21 15:01:00,
2013-02-21 09:06:00,52.8,39.7,30.04,East,95,1.0,4.0,61,0.00,,OVC090,0.00,VWS V13.01,2013-02-21 15:06:00,
2013-02-21 09:11:00,53.3,39.8,30.04,ENE,77,0.0,4.0,60,0.00,,OVC090,0.00,VWS V13.01,2013-02-21 15:11:00,
2013-02-21 09:17:00,53.7,40.2,30.04,East,99,0.0,1.0,60,0.00,,OVC090,0.00,VWS V13.01,2013-02-21 15:17:00,
2013-02-21 09:22:00,54.0,40.4,30.04,SE,146,3.0,6.0,60,0.00,,OVC090,0.00,VWS V13.01,2013-02-21 15:22:00,
2013-02-21 09:27:00,54.3,40.3,30.03,East,96,0.0,8.0,59,0.00,,OVC090,0.00,VWS V13.01,2013-02-21 15:27:00,
2013-02-21 09:32:00,54.6,41.0,30.03,NE,54,0.0,3.0,60,0.00,,OVC090,0.00,VWS V13.01,2013-02-21 15:32:00,
2013-02-21 09:37:00,55.0,41.4,30.03,East,86,2.0,7.0,60,0.00,,OVC090,0.00,VWS V13.01,2013-02-21 15:37:00,
2013-02-21 09:42:00,55.3,41.2,30.03,ESE,105,5.0,7.0,59,0.00,,OVC090,0.00,VWS V13.01,2013-02-21 15:42:00,
2013-02-21 09:47:00,55.4,41.8,30.02,NNE,22,0.0,0.0,60,0.00,,OVC090,0.00,VWS V13.01,2013-02-21 15:47:00,
2013-02-21 09:52:00,55.7,42.0,30.02,East,80,1.0,7.0,60,0.00,,OVC090,0.00,VWS V13.01,2013-02-21 15:52:00,
2013-02-21 09:57:00,56.1,42.4,30.02,ENE,66,0.0,7.0,60,0.00,,OVC090,0.00,VWS V13.01,2013-02-21 15:57:00,
2013-02-21 10:02:00,56.7,43.0,30.02,SE,128,3.0,4.0,60,0.00,,OVC095,0.00,VWS V13.01,2013-02-21 16:02:00,
2013-02-21 10:07:00,57.1,43.4,30.02,SE,129,4.0,10.0,60,0.00,,OVC095,0.00,VWS V13.01,2013-02-21 16:07:00,
2013-02-21 10:32:00,58.3,45.3,30.01,East,88,6.0,6.0,62,0.00,,OVC095,0.00,VWS V13.01,2013-02-21 16:32:00,
2013-02-21 10:37:00,58.3,45.8,30.01,East,91,0.0,7.0,63,0.00,,OVC095,0.00,VWS V13.01,2013-02-21 16:37:00,
2013-02-21 10:42:00,58.5,46.0,30.00,SE,138,3.0,10.0,63,0.00,,OVC095,0.00,VWS V13.01,2013-02-21 16:42:00,
2013-02-21 10:47:00,59.0,46.8,30.00,SSE,149,6.0,7.0,64,0.00,,OVC095,0.00,VWS V13.01,2013-02-21 16:47:00,
2013-02-21 10:52:00,59.4,47.2,30.00,East,80,0.0,14.0,64,0.00,,OVC095,0.00,VWS V13.01,2013-02-21 16:52:00,
2013-02-21 10:57:00,59.6,47.4,30.00,ENE,64,0.0,14.0,64,0.00,,OVC095,0.00,VWS V13.01,2013-02-21 16:57:00,
2013-02-21 11:02:00,59.6,47.4,30.00,East,98,0.0,1.0,64,0.00,,OVC035,0.00,VWS V13.01,2013-02-21 17:02:00,
2013-02-21 11:07:00,59.6,48.2,30.00,East,98,4.0,10.0,66,0.00,,OVC035,0.00,VWS V13.01,2013-02-21 17:07:00,
2013-02-21 11:12:00,59.8,48.4,30.00,ESE,107,1.0,10.0,66,0.00,,OVC035,0.00,VWS V13.01,2013-02-21 17:12:00,
2013-02-21 11:17:00,60.3,48.9,30.00,ESE,110,6.0,10.0,66,0.00,,OVC035,0.00,VWS V13.01,2013-02-21 17:17:00,
2013-02-21 11:22:00,60.7,49.3,29.98,East,100,0.0,10.0,66,0.00,,OVC035,0.00,VWS V13.01,2013-02-21 17:22:00,
2013-02-21 11:27:00,61.1,49.7,29.98,ESE,119,6.0,10.0,66,0.00,,OVC035,0.00,VWS V13.01,2013-02-21 17:27:00,
2013-02-21 11:33:00,61.3,50.3,29.99,SE,126,9.0,12.0,67,0.00,,OVC035,0.00,VWS V13.01,2013-02-21 17:33:00,
2013-02-21 11:47:00,62.6,51.1,29.98,ESE,111,4.0,11.0,66,0.00,,OVC035,0.00,VWS V13.01,2013-02-21 17:47:00,
2013-02-21 11:52:00,62.8,51.7,29.98,East,101,2.0,11.0,67,0.00,,OVC035,0.00,VWS V13.01,2013-02-21 17:52:00,
2013-02-21 11:57:00,62.9,51.8,29.98,East,87,7.0,11.0,67,0.00,,OVC035,0.00,VWS V13.01,2013-02-21 17:57:00,
2013-02-21 12:02:00,62.7,52.0,29.98,SE,131,5.0,11.0,68,0.00,,OVC033,0.00,VWS V13.01,2013-02-21 18:02:00,
2013-02-21 12:07:00,62.6,52.3,29.98,ENE,71,6.0,13.0,69,0.00,,OVC033,0.00,VWS V13.01,2013-02-21 18:07:00,
2013-02-21 12:12:00,62.5,52.6,29.97,SSE,155,4.0,13.0,70,0.00,,OVC033,0.00,VWS V13.01,2013-02-21 18:12:00,
2013-02-21 12:18:00,62.7,52.8,29.96,SE,134,5.0,9.0,70,0.00,,OVC033,0.00,VWS V13.01,2013-02-21 18:18:00,
2013-02-21 12:23:00,63.3,53.4,29.96,ESE,113,1.0,12.0,70,0.00,,OVC033,0.00,VWS V13.01,2013-02-21 18:23:00,
2013-02-21 12:32:00,64.3,54.3,29.95,SE,129,9.0,10.0,70,0.00,,OVC033,0.00,VWS V13.01,2013-02-21 18:32:00,
2013-02-21 12:37:00,64.3,54.3,29.95,ENE,61,12.0,14.0,70,0.00,,OVC033,0.00,VWS V13.01,2013-02-21 18:37:00,
2013-02-21 12:42:00,64.1,54.1,29.95,SE,131,0.0,14.0,70,0.00,,OVC033,0.00,VWS V13.01,2013-02-21 18:42:00,
2013-02-21 12:47:00,64.0,54.4,29.95,East,98,0.0,6.0,71,0.00,,OVC033,0.00,VWS V13.01,2013-02-21 18:47:00,
2013-02-21 12:53:00,64.1,54.9,29.95,SE,146,0.0,7.0,72,0.00,,OVC033,0.00,VWS V13.01,2013-02-21 18:53:00,
2013-02-21 12:58:00,64.0,55.2,29.94,East,81,7.0,16.0,73,0.00,,OVC033,0.00,VWS V13.01,2013-02-21 18:58:00,
2013-02-21 13:03:00,64.2,55.4,29.94,SE,125,0.0,12.0,73,0.00,,BKN090,0.00,VWS V13.01,2013-02-21 19:03:00,
2013-02-21 13:08:00,64.1,55.7,29.94,ESE,117,9.0,14.0,74,0.00,,BKN090,0.00,VWS V13.01,2013-02-21 19:08:00,
2013-02-21 13:13:00,64.2,56.1,29.94,SE,139,6.0,14.0,75,0.00,,BKN090,0.00,VWS V13.01,2013-02-21 19:13:00,
2013-02-21 13:18:00,64.1,56.0,29.93,ESE,122,2.0,8.0,75,0.00,,BKN090,0.00,VWS V13.01,2013-02-21 19:18:00,
2013-02-21 13:23:00,64.3,56.6,29.93,ESE,111,0.0,8.0,76,0.00,,BKN090,0.00,VWS V13.01,2013-02-21 19:23:00,
2013-02-21 13:28:00,64.4,57.0,29.92,SE,145,12.0,14.0,77,0.00,,BKN090,0.00,VWS V13.01,2013-02-21 19:28:00,
2013-02-21 13:33:00,64.0,57.0,29.93,SE,143,6.0,9.0,78,0.00,,BKN090,0.00,VWS V13.01,2013-02-21 19:33:00,
2013-02-21 13:38:00,63.7,57.1,29.91,East,90,4.0,15.0,79,0.00,,BKN090,0.00,VWS V13.01,2013-02-21 19:38:00,
2013-02-21 13:43:00,63.6,57.3,29.91,ESE,104,3.0,15.0,80,0.00,,BKN090,0.00,VWS V13.01,2013-02-21 19:43:00,
2013-02-21 13:48:00,63.5,57.6,29.90,East,98,0.0,22.0,81,0.00,,BKN090,0.00,VWS V13.01,2013-02-21 19:48:00,
2013-02-21 13:53:00,63.4,57.8,29.90,ESE,122,0.0,22.0,82,0.00,,BKN090,0.00,VWS V13.01,2013-02-21 19:53:00,
2013-02-21 13:58:00,63.5,57.9,29.90,SE,129,7.0,22.0,82,0.00,,BKN090,0.00,VWS V13.01,2013-02-21 19:58:00,
2013-02-21 14:03:00,63.5,57.9,29.89,SE,137,10.0,11.0,82,0.00,,OVC016,0.00,VWS V13.01,2013-02-21 20:03:00,
2013-02-21 14:08:00,63.5,57.9,29.89,SE,129,6.0,16.0,82,0.00,,OVC016,0.00,VWS V13.01,2013-02-21 20:08:00,
2013-02-21 14:13:00,63.6,58.3,29.89,SE,146,3.0,16.0,83,0.00,,OVC016,0.00,VWS V13.01,2013-02-21 20:13:00,
2013-02-21 14:18:00,63.6,58.3,29.89,SE,143,7.0,14.0,83,0.00,,OVC016,0.00,VWS V13.01,2013-02-21 20:18:00,
2013-02-21 14:23:00,63.6,58.3,29.88,ESE,120,0.0,14.0,83,0.00,,OVC016,0.00,VWS V13.01,2013-02-21 20:23:00,
2013-02-21 14:28:00,63.7,58.8,29.88,ESE,103,4.0,15.0,84,0.00,,OVC016,0.00,VWS V13.01,2013-02-21 20:28:00,
2013-02-21 14:34:00,63.8,58.9,29.89,ESE,108,6.0,11.0,84,0.00,,OVC014,0.00,VWS V13.01,2013-02-21 20:34:00,
2013-02-21 14:39:00,64.0,59.1,29.89,ESE,115,4.0,12.0,84,0.00,,OVC014,0.00,VWS V13.01,2013-02-21 20:39:00,
2013-02-21 14:44:00,64.0,59.1,29.89,East,90,1.0,15.0,84,0.00,,OVC014,0.00,VWS V13.01,2013-02-21 20:44:00,
2013-02-21 14:49:00,64.0,59.4,29.89,SE,142,0.0,11.0,85,0.00,,OVC014,0.00,VWS V13.01,2013-02-21 20:49:00,
2013-02-21 14:54:00,64.1,59.5,29.89,SSE,163,4.0,11.0,85,0.00,,OVC014,0.00,VWS V13.01,2013-02-21 20:54:00,
2013-02-21 14:59:00,64.1,59.5,29.89,SE,127,3.0,11.0,85,0.00,,OVC014,0.00,VWS V13.01,2013-02-21 20:59:00,
2013-02-21 15:04:00,64.2,59.9,29.89,SE,138,2.0,2.0,86,0.00,,OVC014,0.00,VWS V13.01,2013-02-21 21:04:00,
2013-02-21 15:09:00,64.4,60.1,29.89,East,80,0.0,9.0,86,0.00,,OVC014,0.00,VWS V13.01,2013-02-21 21:09:00,
2013-02-21 15:14:00,64.4,60.1,29.89,SE,132,0.0,10.0,86,0.00,,OVC014,0.00,VWS V13.01,2013-02-21 21:14:00,
2013-02-21 15:19:00,64.4,60.5,29.89,South,169,1.0,10.0,87,0.00,,OVC014,0.00,VWS V13.01,2013-02-21 21:19:00,
2013-02-21 15:24:00,64.4,60.5,29.89,SSE,148,0.0,10.0,87,0.00,,OVC014,0.00,VWS V13.01,2013-02-21 21:24:00,
2013-02-21 15:29:00,64.5,60.5,29.89,East,101,2.0,13.0,87,0.00,,OVC014,0.00,VWS V13.01,2013-02-21 21:29:00,
2013-02-21 15:34:00,64.7,60.8,29.88,East,95,4.0,7.0,87,0.00,,OVC014,0.00,VWS V13.01,2013-02-21 21:34:00,
2013-02-21 15:39:00,64.9,60.9,29.87,SSE,155,2.0,10.0,87,0.00,,OVC014,0.00,VWS V13.01,2013-02-21 21:39:00,
2013-02-21 15:44:00,65.0,61.0,29.87,ESE,107,0.0,10.0,87,0.00,,OVC014,0.00,VWS V13.01,2013-02-21 21:44:00,
2013-02-21 15:49:00,65.0,61.0,29.87,ESE,117,5.0,10.0,87,0.00,,OVC014,0.00,VWS V13.01,2013-02-21 21:49:00,
2013-02-21 15:54:00,65.1,61.1,29.86,East,98,2.0,10.0,87,0.00,,OVC014,0.00,VWS V13.01,2013-02-21 21:54:00,
2013-02-21 15:59:00,65.1,61.1,29.86,SE,132,3.0,12.0,87,0.00,,OVC014,0.00,VWS V13.01,2013-02-21 21:59:00,
2013-02-21 16:04:00,65.2,61.6,29.86,ESE,113,0.0,6.0,88,0.00,,OVC012,0.00,VWS V13.01,2013-02-21 22:04:00,
2013-02-21 16:09:00,65.2,61.6,29.86,ESE,102,4.0,13.0,88,0.00,,OVC012,0.00,VWS V13.01,2013-02-21 22:09:00,
2013-02-21 16:14:00,65.1,61.5,29.87,SSE,155,5.0,14.0,88,0.00,,OVC012,0.00,VWS V13.01,2013-02-21 22:14:00,
2013-02-21 16:19:00,65.1,61.5,29.86,South,173,6.0,11.0,88,0.00,,OVC012,0.00,VWS V13.01,2013-02-21 22:19:00,
2013-02-21 16:24:00,65.0,61.4,29.86,SE,138,0.0,11.0,88,0.00,,OVC012,0.00,VWS V13.01,2013-02-21 22:24:00,
2013-02-21 16:29:00,65.0,61.4,29.86,SSE,149,0.0,11.0,88,0.00,,OVC012,0.00,VWS V13.01,2013-02-21 22:29:00,
2013-02-21 16:34:00,64.9,61.3,29.86,SE,134,0.0,13.0,88,0.00,,OVC012,0.00,VWS V13.01,2013-02-21 22:34:00,
2013-02-21 16:40:00,64.9,61.3,29.86,SE,145,0.0,15.0,88,0.00,,OVC012,0.00,VWS V13.01,2013-02-21 22:40:00,
2013-02-21 16:45:00,64.9,61.3,29.86,ESE,123,6.0,15.0,88,0.00,,OVC012,0.00,VWS V13.01,2013-02-21 22:45:00,
2013-02-21 16:50:00,64.8,61.2,29.86,SE,126,2.0,10.0,88,0.00,,OVC012,0.00,VWS V13.01,2013-02-21 22:50:00,
2013-02-21 16:55:00,64.7,61.1,29.86,ESE,106,2.0,10.0,88,0.00,,OVC012,0.00,VWS V13.01,2013-02-21 22:55:00,
2013-02-21 17:00:00,64.7,61.4,29.86,SSE,157,10.0,10.0,89,0.00,,OVC012,0.00,VWS V13.01,2013-02-21 23:00:00,
2013-02-21 17:05:00,64.6,61.3,29.86,SE,127,2.0,13.0,89,0.00,,OVC200,0.00,VWS V13.01,2013-02-21 23:05:00,
2013-02-21 17:10:00,64.5,61.2,29.86,SE,131,3.0,16.0,89,0.00,,OVC200,0.00,VWS V13.01,2013-02-21 23:10:00,
2013-02-21 17:15:00,64.5,61.2,29.86,SE,131,6.0,16.0,89,0.00,,OVC200,0.00,VWS V13.01,2013-02-21 23:15:00,
2013-02-21 17:20:00,64.5,61.2,29.86,South,183,0.0,13.0,89,0.00,,OVC200,0.00,VWS V13.01,2013-02-21 23:20:00,
2013-02-21 17:25:00,64.4,61.1,29.86,SE,140,0.0,13.0,89,0.00,,OVC200,0.00,VWS V13.01,2013-02-21 23:25:00,
2013-02-21 17:30:00,64.4,61.1,29.86,SE,137,5.0,13.0,89,0.00,,OVC200,0.00,VWS V13.01,2013-02-21 23:30:00,
2013-02-21 17:35:00,64.4,61.1,29.86,ENE,63,4.0,12.0,89,0.00,,OVC200,0.00,VWS V13.01,2013-02-21 23:35:00,
2013-02-21 17:40:00,64.4,61.1,29.86,ESE,110,3.0,12.0,89,0.00,,OVC200,0.00,VWS V13.01,2013-02-21 23:40:00,
2013-02-21 17:45:00,64.4,61.1,29.86,ESE,105,0.0,12.0,89,0.00,,OVC200,0.00,VWS V13.01,2013-02-21 23:45:00,
2013-02-21 17:50:00,64.4,61.1,29.86,ESE,122,10.0,11.0,89,0.00,,OVC200,0.00,VWS V13.01,2013-02-21 23:50:00,
2013-02-21 17:56:00,64.4,61.1,29.86,South,182,0.0,11.0,89,0.00,,OVC200,0.00,VWS V13.01,2013-02-21 23:56:00,
2013-02-21 18:01:00,64.5,61.2,29.86,SE,144,0.0,11.0,89,0.00,,OVC200,0.00,VWS V13.01,2013-02-22 00:01:00,
2013-02-21 18:06:00,64.4,61.1,29.87,ESE,121,4.0,14.0,89,0.00,,BKN090,0.00,VWS V13.01,2013-02-22 00:06:00,
2013-02-21 18:11:00,64.5,61.2,29.87,SE,131,0.0,14.0,89,0.00,,BKN090,0.00,VWS V13.01,2013-02-22 00:11:00,
2013-02-21 18:16:00,64.5,61.2,29.87,ESE,103,3.0,14.0,89,0.00,,BKN090,0.00,VWS V13.01,2013-02-22 00:16:00,
2013-02-21 18:21:00,64.5,61.2,29.87,ESE,117,6.0,15.0,89,0.00,,BKN090,0.00,VWS V13.01,2013-02-22 00:21:00,
2013-02-21 18:26:00,64.5,61.2,29.87,SSE,163,0.0,15.0,89,0.00,,BKN090,0.00,VWS V13.01,2013-02-22 00:26:00,
2013-02-21 18:31:00,64.5,61.5,29.87,SE,133,10.0,15.0,90,0.00,,BKN090,0.00,VWS V13.01,2013-02-22 00:31:00,
2013-02-21 18:36:00,64.5,61.5,29.86,SE,146,6.0,12.0,90,0.00,,BKN090,0.00,VWS V13.01,2013-02-22 00:36:00,
2013-02-21 18:41:00,64.4,61.4,29.87,East,98,0.0,12.0,90,0.00,,BKN090,0.00,VWS V13.01,2013-02-22 00:41:00,
2013-02-21 18:46:00,64.4,61.4,29.87,ESE,118,3.0,14.0,90,0.00,,BKN090,0.00,VWS V13.01,2013-02-22 00:46:00,
2013-02-21 18:51:00,64.5,61.5,29.87,SE,127,0.0,12.0,90,0.00,,BKN090,0.00,VWS V13.01,2013-02-22 00:51:00,
2013-02-21 18:56:00,64.5,61.5,29.88,SSW,198,1.0,12.0,90,0.00,,BKN090,0.00,VWS V13.01,2013-02-22 00:56:00,
2013-02-21 19:01:00,64.5,61.5,29.88,SE,140,0.0,12.0,90,0.00,,BKN095,0.00,VWS V13.01,2013-02-22 01:01:00,
2013-02-21 19:06:00,64.5,61.5,29.89,ESE,115,4.0,5.0,90,0.00,,BKN095,0.00,VWS V13.01,2013-02-22 01:06:00,
2013-02-21 19:11:00,64.5,61.5,29.88,ESE,119,3.0,9.0,90,0.00,,BKN095,0.00,VWS V13.01,2013-02-22 01:11:00,
2013-02-21 19:17:00,64.5,61.5,29.88,SE,146,0.0,0.0,90,0.00,,BKN095,0.00,VWS V13.01,2013-02-22 01:17:00,
2013-02-21 19:22:00,64.6,61.6,29.89,ESE,119,4.0,7.0,90,0.00,,BKN095,0.00,VWS V13.01,2013-02-22 01:22:00,
2013-02-21 19:27:00,64.6,61.6,29.89,SE,141,2.0,7.0,90,0.00,,BKN095,0.00,VWS V13.01,2013-02-22 01:27:00,
2013-02-21 19:32:00,64.7,62.0,29.89,ESE,110,3.0,5.0,91,0.00,,OVC060,0.00,VWS V13.01,2013-02-22 01:32:00,
2013-02-21 19:37:00,64.8,62.1,29.89,SE,130,3.0,10.0,91,0.00,,OVC060,0.00,VWS V13.01,2013-02-22 01:37:00,
2013-02-21 19:42:00,64.8,62.1,29.89,ESE,109,6.0,10.0,91,0.00,,OVC060,0.00,VWS V13.01,2013-02-22 01:42:00,
2013-02-21 19:47:00,64.9,62.2,29.89,SE,124,0.0,6.0,91,0.00,,OVC060,0.00,VWS V13.01,2013-02-22 01:47:00,
2013-02-21 19:52:00,65.0,62.3,29.89,SSE,165,0.0,9.0,91,0.00,,OVC060,0.00,VWS V13.01,2013-02-22 01:52:00,
2013-02-21 19:57:00,65.0,62.3,29.89,ESE,115,4.0,11.0,91,0.00,,OVC060,0.00,VWS V13.01,2013-02-22 01:57:00,
2013-02-21 20:02:00,65.0,62.3,29.89,East,91,3.0,6.0,91,0.00,,OVC017,0.00,VWS V13.01,2013-02-22 02:02:00,
2013-02-21 20:07:00,65.1,62.4,29.88,SSW,203,3.0,6.0,91,0.00,,OVC017,0.00,VWS V13.01,2013-02-22 02:07:00,
2013-02-21 20:12:00,65.0,62.3,29.88,South,182,0.0,7.0,91,0.00,,OVC017,0.00,VWS V13.01,2013-02-22 02:12:00,
2013-02-21 20:17:00,65.1,62.7,29.88,SSE,157,2.0,9.0,92,0.00,,OVC017,0.00,VWS V13.01,2013-02-22 02:17:00,
2013-02-21 20:23:00,65.1,62.7,29.88,SSE,150,3.0,10.0,92,0.00,,OVC017,0.00,VWS V13.01,2013-02-22 02:23:00,
2013-02-21 20:28:00,65.2,62.8,29.88,SE,140,4.0,10.0,92,0.00,,OVC017,0.00,VWS V13.01,2013-02-22 02:28:00,
2013-02-21 20:33:00,65.2,62.8,29.88,ESE,118,3.0,7.0,92,0.00,,OVC009,0.00,VWS V13.01,2013-02-22 02:33:00,
2013-02-21 20:38:00,65.2,62.8,29.88,SE,139,2.0,7.0,92,0.00,,OVC009,0.00,VWS V13.01,2013-02-22 02:38:00,
2013-02-21 20:43:00,65.3,62.9,29.88,SSE,150,4.0,12.0,92,0.00,,OVC009,0.00,VWS V13.01,2013-02-22 02:43:00,
2013-02-21 20:48:00,65.3,62.9,29.89,SE,142,0.0,5.0,92,0.00,,OVC009,0.00,VWS V13.01,2013-02-22 02:48:00,
2013-02-21 20:53:00,65.3,62.9,29.89,ESE,121,2.0,6.0,92,0.00,,OVC009,0.00,VWS V13.01,2013-02-22 02:53:00,
2013-02-21 20:58:00,65.3,62.9,29.88,SE,134,0.0,6.0,92,0.00,,OVC009,0.00,VWS V13.01,2013-02-22 02:58:00,
2013-02-21 21:03:00,65.3,62.9,29.89,SE,142,0.0,5.0,92,0.00,,OVC009,0.00,VWS V13.01,2013-02-22 03:03:00,
2013-02-21 21:08:00,65.3,62.9,29.88,ESE,113,0.0,6.0,92,0.00,,OVC009,0.00,VWS V13.01,2013-02-22 03:08:00,
2013-02-21 21:13:00,65.3,63.2,29.88,SE,145,0.0,7.0,93,0.00,,OVC009,0.00,VWS V13.01,2013-02-22 03:13:00,
2013-02-21 21:18:00,65.4,63.3,29.88,SE,132,2.0,6.0,93,0.00,,OVC009,0.00,VWS V13.01,2013-02-22 03:18:00,
2013-02-21 21:23:00,65.5,63.4,29.89,ESE,117,0.0,6.0,93,0.00,,OVC009,0.00,VWS V13.01,2013-02-22 03:23:00,
2013-02-21 21:28:00,65.6,63.5,29.89,SE,127,1.0,10.0,93,0.00,,OVC009,0.00,VWS V13.01,2013-02-22 03:28:00,
2013-02-21 21:33:00,65.6,63.5,29.89,SE,141,6.0,12.0,93,0.00,,OVC009,0.00,VWS V13.01,2013-02-22 03:33:00,
2013-02-21 21:38:00,65.7,63.6,29.88,SSE,157,7.0,12.0,93,0.00,,OVC009,0.00,VWS V13.01,2013-02-22 03:38:00,
2013-02-21 21:43:00,65.8,63.7,29.88,SSE,150,3.0,12.0,93,0.00,,OVC009,0.00,VWS V13.01,2013-02-22 03:43:00,
2013-02-21 21:49:00,65.9,63.8,29.88,SE,132,10.0,10.0,93,0.00,,OVC009,0.00,VWS V13.01,2013-02-22 03:49:00,
2013-02-21 21:54:00,65.9,63.8,29.88,SE,142,4.0,13.0,93,0.00,,OVC009,0.00,VWS V13.01,2013-02-22 03:54:00,
2013-02-21 21:59:00,65.9,63.8,29.88,South,175,4.0,13.0,93,0.00,,OVC009,0.00,VWS V13.01,2013-02-22 03:59:00,
2013-02-21 22:04:00,65.9,63.8,29.88,SSE,149,4.0,9.0,93,0.00,,OVC007,0.00,VWS V13.01,2013-02-22 04:04:00,
2013-02-21 22:09:00,65.9,63.8,29.89,South,180,0.0,9.0,93,0.00,,OVC007,0.00,VWS V13.01,2013-02-22 04:09:00,
2013-02-21 22:14:00,65.9,63.8,29.89,SE,129,7.0,9.0,93,0.00,,OVC007,0.00,VWS V13.01,2013-02-22 04:14:00,
2013-02-21 22:19:00,66.0,63.9,29.89,South,186,3.0,6.0,93,0.00,,OVC007,0.00,VWS V13.01,2013-02-22 04:19:00,
2013-02-21 22:24:00,66.1,64.0,29.89,SE,144,0.0,7.0,93,0.00,,OVC007,0.00,VWS V13.01,2013-02-22 04:24:00,
2013-02-21 22:29:00,66.1,64.0,29.88,SSE,153,0.0,9.0,93,0.00,,OVC007,0.00,VWS V13.01,2013-02-22 04:29:00,
2013-02-21 22:34:00,66.1,64.3,29.89,SSE,147,6.0,6.0,94,0.00,,OVC007,0.00,VWS V13.01,2013-02-22 04:34:00,
2013-02-21 22:39:00,66.3,64.5,29.89,SE,142,0.0,10.0,94,0.00,,OVC007,0.00,VWS V13.01,2013-02-22 04:39:00,
2013-02-21 22:44:00,66.3,64.2,29.89,SSE,147,0.0,10.0,93,0.00,,OVC007,0.00,VWS V13.01,2013-02-22 04:44:00,
2013-02-21 22:49:00,66.3,64.2,29.88,SE,141,5.0,7.0,93,0.00,,OVC007,0.00,VWS V13.01,2013-02-22 04:49:00,
2013-02-21 22:54:00,66.4,64.3,29.88,South,169,0.0,7.0,93,0.00,,OVC007,0.00,VWS V13.01,2013-02-22 04:54:00,
2013-02-21 22:59:00,66.4,64.3,29.88,SE,132,0.0,7.0,93,0.00,,OVC007,0.00,VWS V13.01,2013-02-22 04:59:00,
2013-02-21 23:00:00,66.4,64.3,29.88,SE,134,5.0,7.0,93,0.00,,OVC007,0.00,VWS V13.01,2013-02-22 05:00:00,
2013-02-21 23:01:00,66.4,64.6,29.88,SE,132,0.0,7.0,94,0.00,,OVC007,0.00,VWS V13.01,2013-02-22 05:01:00,
2013-02-21 23:06:00,66.5,64.7,29.89,South,184,2.0,7.0,94,0.00,,OVC007,0.00,VWS V13.01,2013-02-22 05:06:00,
2013-02-21 23:11:00,66.6,64.8,29.88,SE,141,0.0,9.0,94,0.00,,OVC007,0.00,VWS V13.01,2013-02-22 05:11:00,
2013-02-21 23:16:00,66.7,64.9,29.88,SE,146,4.0,9.0,94,0.00,,OVC007,0.00,VWS V13.01,2013-02-22 05:16:00,
2013-02-21 23:21:00,66.8,65.0,29.88,SSE,149,5.0,5.0,94,0.00,,OVC007,0.00,VWS V13.01,2013-02-22 05:21:00,
2013-02-21 23:26:00,66.8,65.0,29.88,South,191,4.0,13.0,94,0.00,,OVC007,0.00,VWS V13.01,2013-02-22 05:26:00,
2013-02-21 23:31:00,66.9,65.1,29.89,SSW,209,0.0,13.0,94,0.00,,OVC007,0.00,VWS V13.01,2013-02-22 05:31:00,
2013-02-21 23:36:00,66.9,65.1,29.88,SE,137,0.0,7.0,94,0.00,,OVC007,0.00,VWS V13.01,2013-02-22 05:36:00,
2013-02-21 23:41:00,66.9,65.1,29.88,SSW,194,5.0,9.0,94,0.00,,OVC007,0.00,VWS V13.01,2013-02-22 05:41:00,
2013-02-21 23:47:00,67.0,65.2,29.88,South,169,3.0,5.0,94,0.00,,OVC007,0.00,VWS V13.01,2013-02-22 05:47:00,
2013-02-21 23:52:00,67.0,65.2,29.88,SE,143,5.0,10.0,94,0.00,,OVC007,0.00,VWS V13.01,2013-02-22 05:52:00,
2013-02-21 23:57:00,67.0,65.2,29.88,South,175,0.0,10.0,94,0.00,,OVC007,0.00,VWS V13.01,2013-02-22 05:57:00,